DW0243 Weather Reports


time (UTC)temp
C
wind
direction
speed
KPH
gust
KPH
rain 1hr
cm
rain 24hr
cm
rain mn
cm
humidity
%
barometer
mb
20260831112244 21 256 4.8 19.3 0.00 0.41 0.41 71 1013.9
20260831111243 20 171 4.8 22.5 0.00 0.41 0.41 73 1013.9
20260831110247 20 229 4.8 20.9 0.00 0.41 0.41 77 1013.9
20260831105240 19 252 3.2 17.7 0.00 0.41 0.41 78 1014.0
20260831104242 20 156 11.3 22.5 0.00 0.41 0.41 74 1014.0
20260831103241 20 215 4.8 24.1 0.00 0.41 0.41 71 1013.9
20260831102240 21 148 4.8 16.1 0.00 0.41 0.41 66 1013.8
20260831101235 21 306 3.2 16.1 0.00 0.41 0.41 73 1013.7
20260831100236 20 260 4.8 16.1 0.00 0.41 0.41 73 1013.8
20260831095236 20 227 6.4 24.1 0.00 0.41 0.41 74 1013.8
20260831094231 20 259 12.9 24.1 0.00 0.41 0.41 76 1014.0
20260831093232 20 190 6.4 25.7 0.00 0.41 0.41 78 1013.8
20260831092237 19 256 6.4 17.7 0.00 0.41 0.41 80 1013.9
20260831084233 18 240 4.8 22.5 0.00 0.41 0.41 84 1013.9
20260831083233 18 213 4.8 19.3 0.00 0.41 0.41 86 1013.9
20260831082234 18 155 0.0 14.5 0.00 0.41 0.41 88 1013.8
20260831081230 18 254 1.6 12.9 0.00 0.41 0.41 88 1013.8
20260831080229 18 234 3.2 11.3 0.00 0.41 0.41 88 1013.8
20260831075231 18 252 1.6 12.9 0.00 0.41 0.41 90 1013.9
20260831071238 17 209 3.2 12.9 0.00 0.41 0.41 92 1013.9
20260831070231 17 160 1.6 9.7 0.00 0.41 0.41 93 1013.8
20260831065231 17 169 0.0 6.4 0.00 0.41 0.41 93 1013.7
20260831063230 16 167 1.6 6.4 0.00 0.41 0.41 92 1013.6
20260831062230 16 168 0.0 8.0 0.00 0.41 0.41 92 1013.6
20260831061231 16 194 1.6 4.8 0.00 0.43 0.41 91 1013.6
20260831060230 16 196 0.0 4.8 0.00 0.43 0.41 92 1013.4
20260831055231 16 194 0.0 3.2 0.00 0.43 0.41 92 1013.4
20260831050229 15 223 0.0 0.0 0.10 0.51 0.41 93 1013.0
20260831044231 15 223 0.0 0.0 0.10 0.41 0.41 92 1012.9
20260831043233 16 223 0.0 0.0 0.13 0.41 0.41 92 1012.9
20260831042229 16 223 0.0 0.0 0.15 0.41 0.41 93 1013.0
20260831040230 16 223 0.0 0.0 0.13 0.41 0.30 93 1012.7
20260831035232 16 223 0.0 6.4 0.15 0.25 0.30 93 1012.8
20260831034231 16 221 0.0 6.4 0.15 0.25 0.30 93 1012.8
20260831032229 16 159 0.0 9.7 0.13 0.25 0.23 93 1012.8
20260831031235 16 281 1.6 6.4 0.05 0.25 0.18 93 1012.8
20260831030230 16 115 3.2 6.4 0.05 0.25 0.15 93 1012.5
20260831025229 16 117 0.0 6.4 0.05 0.23 0.15 93 1012.8
20260831022236 16 167 4.8 12.9 0.05 0.23 0.15 93 1012.6
20260831021230 15 132 1.6 11.3 0.08 0.23 0.15 93 1012.8
20260831015232 15 78 0.0 0.0 0.05 0.15 0.10 93 1013.2
20260831014232 15 78 0.0 0.0 0.05 0.15 0.08 93 1013.0
20260831012232 15 78 0.0 3.2 0.08 0.15 0.08 93 1012.9
20260831011232 15 78 0.0 0.0 0.05 0.15 0.05 93 1012.8
20260831010230 15 78 0.0 8.0 0.05 0.15 0.05 93 1013.1
20260831005231 15 184 0.0 4.8 0.05 0.13 0.05 93 1012.9
20260831004230 15 238 0.0 0.0 0.03 0.13 0.03 93 1013.2
20260831003229 15 238 0.0 0.0 0.03 0.13 0.03 93 1013.2
20260831002231 14 238 0.0 0.0 0.00 0.13 0.00 93 1013.4
20260831001232 14 238 0.0 0.0 0.00 0.13 0.00 93 1013.4
20260831000233 14 238 0.0 3.2 0.00 0.13 0.00 93 1013.4
20260830235232 14 238 0.0 0.0 0.00 0.13 0.00 92 1013.3
20260830234232 15 238 0.0 1.6 0.00 0.13 0.00 92 1013.2
20260830233234 15 238 0.0 0.0 0.00 0.13 0.00 92 1013.2
20260830231230 15 238 0.0 0.0 0.00 0.13 0.00 92 1013.2
20260830230231 15 238 0.0 0.0 0.00 0.13 0.00 92 1013.3
20260830225230 14 238 0.0 0.0 0.00 0.13 0.00 92 1013.3
20260830222230 14 238 0.0 0.0 0.00 0.13 0.00 91 1013.6
20260830220230 14 238 0.0 0.0 0.00 0.13 0.00 91 1013.6
20260830215232 14 238 0.0 0.0 0.00 0.13 0.13 90 1013.7
20260830214230 15 238 0.0 0.0 0.00 0.13 0.13 91 1013.7
20260830213230 15 238 0.0 0.0 0.00 0.13 0.13 90 1013.8
20260830212230 15 238 0.0 0.0 0.00 0.13 0.13 90 1013.7
20260830211230 15 238 0.0 0.0 0.00 0.13 0.13 89 1013.8
20260830210232 15 238 0.0 0.0 0.00 0.13 0.13 89 1013.9
20260830205230 15 238 0.0 0.0 0.00 0.13 0.13 88 1013.9
20260830202233 16 238 0.0 0.0 0.00 0.13 0.13 87 1013.9
20260830201230 16 238 0.0 0.0 0.00 0.13 0.13 86 1013.9
20260830200230 16 238 0.0 0.0 0.00 0.13 0.13 86 1014.0
20260830193230 17 238 0.0 0.0 0.00 0.13 0.13 83 1014.1
20260830192230 17 238 0.0 0.0 0.00 0.13 0.13 83 1014.1
20260830191230 17 238 0.0 0.0 0.00 0.13 0.13 82 1014.3
20260830190232 18 238 0.0 1.6 0.00 0.13 0.13 81 1014.2
20260830185230 18 238 0.0 0.0 0.00 0.13 0.13 80 1014.1
20260830183233 19 238 0.0 0.0 0.00 0.13 0.13 77 1013.9
20260830182233 20 238 0.0 0.0 0.00 0.13 0.13 75 1013.9
20260830180233 21 238 0.0 0.0 0.00 0.13 0.13 69 1013.7
20260830175233 21 238 0.0 3.2 0.00 0.13 0.13 68 1013.6
20260830172231 21 238 0.0 4.8 0.00 0.13 0.13 65 1013.7
20260830171231 21 238 0.0 4.8 0.00 0.13 0.13 65 1013.6
20260830170232 22 238 0.0 3.2 0.00 0.13 0.13 65 1013.7
20260830165236 22 238 0.0 4.8 0.00 0.13 0.13 64 1013.5
20260830164231 22 238 0.0 8.0 0.00 0.13 0.13 62 1013.5
20260830163232 22 238 4.8 19.3 0.00 0.13 0.13 60 1013.5
20260830162234 22 197 1.6 9.7 0.00 0.13 0.13 61 1013.5
20260830161231 22 202 4.8 16.1 0.00 0.13 0.13 61 1013.5
20260830160233 22 259 4.8 14.5 0.00 0.13 0.13 60 1013.5
20260830155230 23 221 1.6 14.5 0.00 0.13 0.13 61 1013.5
20260830154230 23 281 6.4 14.5 0.00 0.13 0.13 61 1013.6
20260830153232 23 268 1.6 16.1 0.00 0.13 0.13 60 1013.7
20260830152231 23 263 6.4 12.9 0.00 0.13 0.13 59 1013.9
20260830151230 23 240 4.8 16.1 0.00 0.13 0.13 52 1013.8
20260830150230 23 254 6.4 19.3 0.00 0.13 0.13 58 1013.8
20260830144231 23 234 6.4 17.7 0.00 0.13 0.13 58 1013.8
20260830143233 23 201 3.2 17.7 0.00 0.13 0.13 59 1013.8
20260830142230 23 259 9.7 22.5 0.00 0.13 0.13 60 1013.9
20260830141233 23 250 0.0 14.5 0.00 0.13 0.13 60 1013.9
20260830140233 23 225 1.6 20.9 0.00 0.13 0.13 52 1013.9
20260830132232 24 234 9.7 17.7 0.00 0.13 0.13 56 1013.9
20260830131231 23 176 8.0 25.7 0.00 0.13 0.13 58 1014.0
20260830125231 23 178 8.0 24.1 0.00 0.13 0.13 59 1013.9
20260830124230 23 258 6.4 19.3 0.00 0.13 0.13 61 1014.1
20260830123234 23 227 4.8 24.1 0.00 0.13 0.13 62 1014.0
20260830120231 21 247 6.4 19.3 0.00 0.13 0.13 65 1014.1
20260830115229 22 245 3.2 16.1 0.00 0.13 0.13 63 1014.0
20260830114230 22 161 6.4 17.7 0.00 0.13 0.13 56 1014.0
20260830113232 22 145 6.4 20.9 0.00 0.13 0.13 63 1014.1